Date String (YYYY-MM-DD hh:mm:ss) UTC,Instrument flags,Ambient pressure (hPa),Sample flow (lpm),Bypass flow (lpm),Sample temperature (°C),Ambient temperature (°C),ASC tube jacket temperature (°C),LED temperature (°C),Box temperature (°C),Sample RH (%),Span deviation,Mass concentration (μg/m³),Mass concentration (μg/m³),Mass concentration (μg/m³)
DateTimeUTC,F1_M11,P_M11,Q1_M11,Q2_M11,T1_M11,T2_M11,T3_M11,T4_M11,T5_M11,U1_M11,ZSPAN_M11,X0_M11,X2_M11,X1_M11
2022-04-05 19:00:00,,0812.8,5.02,0.00,25.5,24.6,00.0,34.4,27.4,12.4,0000.0,0005.30,0000.82,0000.34
2022-04-05 19:01:00,,0812.7,5.00,0.00,25.5,24.6,00.0,34.4,27.2,12.7,0000.0,0005.19,0000.80,0000.35
2022-04-05 19:02:00,,0812.5,5.00,0.00,25.5,24.6,00.0,34.4,27.3,12.9,0000.0,0004.38,0000.78,0000.36
2022-04-05 19:03:00,,0812.6,4.99,0.00,25.5,24.7,00.0,34.4,27.4,12.8,0000.0,0003.27,0000.73,0000.36
2022-04-05 19:04:00,,0812.6,5.00,0.00,25.5,24.7,00.0,34.4,27.3,12.8,0000.0,0002.97,0000.77,0000.37
2022-04-05 19:05:00,,0812.7,5.00,0.00,25.5,24.6,00.0,34.4,27.3,12.6,0000.0,0003.04,0000.77,0000.37
2022-04-05 19:06:00,,0812.6,5.01,0.00,25.6,24.6,00.0,34.4,27.3,12.5,0000.0,0003.13,0000.80,0000.37
2022-04-05 19:07:00,,0812.6,5.00,0.00,25.6,24.6,00.0,34.4,27.3,12.4,0000.0,0003.39,0000.84,0000.37
2022-04-05 19:08:00,,0812.8,4.99,0.00,25.6,24.6,00.0,34.5,27.3,12.3,0000.0,0004.42,0000.84,0000.37
2022-04-05 19:09:00,,0812.8,5.01,0.00,25.6,24.6,00.0,34.5,27.4,12.4,0000.0,0004.32,0000.80,0000.36
2022-04-05 19:10:00,,0812.8,5.01,0.00,25.6,24.6,00.0,34.5,27.4,12.6,0000.0,0003.88,0000.78,0000.35
2022-04-05 19:11:00,,0812.7,4.98,0.00,25.6,24.6,00.0,34.5,27.4,12.4,0000.0,0002.77,0000.75,0000.35
2022-04-05 19:12:00,,0812.8,5.01,0.00,25.7,24.7,00.0,34.5,27.4,12.2,0000.0,0002.88,0000.80,0000.36
2022-04-05 19:13:00,,0812.8,5.02,0.00,25.7,24.7,00.0,34.5,27.4,12.1,0000.0,0003.17,0000.86,0000.36
2022-04-05 19:14:00,,0812.7,4.99,0.00,25.7,24.7,00.0,34.5,27.4,12.2,0000.0,0003.16,0000.88,0000.36
2022-04-05 19:15:00,,0812.8,4.99,0.00,25.7,24.7,00.0,34.6,27.5,12.6,0000.0,0003.11,0000.88,0000.36
2022-04-05 19:16:00,,0812.9,5.01,0.00,25.7,24.7,00.0,34.6,27.5,12.6,0000.0,0003.14,0000.91,0000.37
2022-04-05 19:17:00,,0813.2,5.00,0.00,25.7,24.7,00.0,34.6,27.5,12.4,0000.0,0003.34,0000.98,0000.37
2022-04-05 19:18:00,,0813.4,4.99,0.00,25.8,24.7,00.0,34.6,27.5,12.4,0000.0,0003.02,0000.91,0000.36
2022-04-05 19:19:00,,0813.0,5.01,0.00,25.8,24.8,00.0,34.6,27.6,12.2,0000.0,0002.06,0000.90,0000.36
2022-04-05 19:20:00,,0813.0,5.00,0.00,25.8,24.8,00.0,34.6,27.6,11.9,0000.0,0002.10,0000.90,0000.36
2022-04-05 19:21:00,,0813.1,5.01,0.00,25.8,24.9,00.0,34.7,27.6,12.0,0000.0,0002.15,0000.89,0000.35
2022-04-05 19:22:00,,0813.2,4.99,0.00,25.8,24.9,00.0,34.7,27.6,11.9,0000.0,0002.26,0000.93,0000.36
2022-04-05 19:23:00,,0813.2,4.99,0.00,25.8,24.9,00.0,34.7,27.7,11.9,0000.0,0002.44,0000.91,0000.36
2022-04-05 19:24:00,,0813.3,5.00,0.00,25.8,25.0,00.0,34.7,27.7,12.1,0000.0,0002.67,0000.85,0000.36
2022-04-05 19:25:00,,0813.2,5.00,0.00,25.9,25.0,00.0,34.7,27.7,12.7,0000.0,0003.76,0000.86,0000.37
2022-04-05 19:26:00,,0813.1,5.01,0.00,25.8,24.9,00.0,34.7,27.6,12.7,0000.0,0004.51,0000.83,0000.38
2022-04-05 19:27:00,,0813.0,5.00,0.00,25.8,24.9,00.0,34.7,27.6,12.8,0000.0,0004.51,0000.82,0000.38
2022-04-05 19:28:00,,0813.0,4.99,0.00,25.7,24.8,00.0,34.7,27.5,12.7,0000.0,0005.48,0000.80,0000.39
2022-04-05 19:29:00,,0813.0,5.01,0.00,25.7,24.7,00.0,34.7,27.4,12.7,0000.0,0005.92,0000.84,0000.41
2022-04-05 19:30:00,,0812.9,5.00,0.00,25.6,24.7,00.0,34.7,27.4,13.1,0000.0,0006.01,0000.86,0000.44
2022-04-05 19:31:00,,0813.0,4.99,0.00,25.6,24.7,00.0,34.7,27.4,13.7,0000.0,0006.60,0000.92,0000.45
2022-04-05 19:32:00,,0813.0,5.00,0.00,25.6,24.7,00.0,34.7,27.3,13.4,0000.0,0006.90,0000.99,0000.48
2022-04-05 19:33:00,,0813.2,5.01,0.00,25.5,24.7,00.0,34.7,27.3,13.5,0000.0,0006.92,0001.00,0000.50
2022-04-05 19:34:00,,0813.1,5.00,0.00,25.5,24.5,00.0,34.6,27.2,13.7,0000.0,0007.19,0001.04,0000.54
2022-04-05 19:35:00,,0813.2,5.00,0.00,25.4,24.4,00.0,34.6,27.1,13.9,0000.0,0007.08,0001.18,0000.58
2022-04-05 19:36:00,,0813.3,5.00,0.00,25.3,24.2,00.0,34.6,27.0,13.9,0000.0,0006.00,0001.24,0000.62
2022-04-05 19:37:00,,0813.3,5.01,0.00,25.3,24.1,00.0,34.5,26.9,14.1,0000.0,0005.55,0001.33,0000.65
2022-04-05 19:38:00,,0813.2,4.99,0.00,25.2,24.2,00.0,34.5,26.9,14.4,0000.0,0005.71,0001.35,0000.68
2022-04-05 19:39:00,,0813.2,5.00,0.00,25.2,24.2,00.0,34.5,26.9,14.1,0000.0,0005.63,0001.36,0000.70
2022-04-05 19:40:00,,0813.1,5.00,0.00,25.2,24.2,00.0,34.4,26.8,14.0,0000.0,0005.79,0001.41,0000.72
2022-04-05 19:41:00,,0813.1,5.01,0.00,25.1,24.2,00.0,34.4,26.8,14.1,0000.0,0006.99,0001.48,0000.74
2022-04-05 19:42:00,,0813.2,5.01,0.00,25.1,24.2,00.0,34.4,26.8,13.7,0000.0,0007.33,0001.51,0000.75
2022-04-05 19:43:00,,0813.0,5.00,0.00,25.1,24.3,00.0,34.3,26.8,13.5,0000.0,0007.13,0001.49,0000.74
2022-04-05 19:44:00,,0813.0,4.99,0.00,25.1,24.3,00.0,34.3,26.8,13.5,0000.0,0007.20,0001.49,0000.73
2022-04-05 19:45:00,,0813.0,5.00,0.00,25.1,24.4,00.0,34.3,26.9,13.4,0000.0,0006.81,0001.45,0000.71
2022-04-05 19:46:00,,0813.2,5.00,0.00,25.1,24.4,00.0,34.3,26.9,12.8,0000.0,0006.85,0001.39,0000.69
2022-04-05 19:47:00,,0813.2,5.00,0.00,25.1,24.4,00.0,34.3,26.9,13.5,0000.0,0007.27,0001.38,0000.66
2022-04-05 19:48:00,,0813.2,5.00,0.00,25.1,24.4,00.0,34.3,26.9,13.5,0000.0,0007.48,0001.34,0000.64
2022-04-05 19:49:00,,0813.2,5.00,0.00,25.1,24.4,00.0,34.3,26.9,13.3,0000.0,0007.60,0001.33,0000.63
2022-04-05 19:50:00,,0813.1,5.00,0.00,25.1,24.4,00.0,34.2,26.9,13.5,0000.0,0007.09,0001.36,0000.62
2022-04-05 19:51:00,,0813.1,5.00,0.00,25.1,24.5,00.0,34.2,26.9,12.0,0000.0,0006.96,0001.37,0000.61
2022-04-05 19:52:00,,0813.1,4.99,0.00,25.1,24.5,00.0,34.2,26.9,11.4,0000.0,0005.63,0001.33,0000.59
2022-04-05 19:53:00,,0813.2,5.01,0.00,25.1,24.5,00.0,34.2,26.9,11.7,0000.0,0004.81,0001.30,0000.57
2022-04-05 19:54:00,,0813.3,5.01,0.00,25.1,24.5,00.0,34.2,26.9,11.5,0000.0,0005.40,0001.29,0000.57
2022-04-05 19:55:00,,0813.3,5.00,0.00,25.1,24.4,00.0,34.2,26.9,12.3,0000.0,0005.42,0001.27,0000.58
2022-04-05 19:56:00,,0813.3,5.00,0.00,25.1,24.4,00.0,34.2,26.9,13.9,0000.0,0005.58,0001.30,0000.58
2022-04-05 19:57:00,,0813.4,4.99,0.00,25.1,24.3,00.0,34.2,26.8,13.9,0000.0,0005.74,0001.36,0000.60
2022-04-05 19:58:00,,0813.4,5.01,0.00,25.1,24.2,00.0,34.2,26.8,13.7,0000.0,0005.68,0001.38,0000.63
2022-04-05 19:59:00,,0813.5,5.00,0.00,25.0,24.2,00.0,34.2,26.7,13.9,0000.0,0006.16,0001.39,0000.63
